Flag for Netherlands Weather past 2 weeks in Zoetermeer, Netherlands

Now
50 °F

Scattered clouds.


Feels Like: 45 °F
Forecast: 43 / 60 °F
Wind: 14 mph from North

Location: Rotterdam Zestienhoven Airport


UV Index: 3 (Moderate)

Visibility: N/A


Pressure: 30.04 "Hg

Humidity: 62%

Dew point: 37 °F

Location of ZoetermeerLocation

Historic Weather in Zoetermeer

°F

Zoetermeer temperature yesterday

Maximum temperature yesterday: 63 °F (at 2:55 PM)
Minimum temperature yesterday: 43 °F (at 2:25 AM)
Average temperature yesterday: 52 °F

Past Weeks' High & Low Weather Summary

 TemperatureHumidityPressure
High70 °F (Apr 3, 2:25 PM)100% (Apr 5, 5:25 AM)30.45 "Hg (Apr 5, 5:25 AM)
Low32 °F (Apr 16, 6:55 AM)39% (Apr 16, 6:25 PM)29.56 "Hg (Apr 3, 12:25 PM)
Average52 °F77%30.06 "Hg
* Reported Apr 3 10:25 AM — Apr 18 10:55 AM, Zoetermeer, Weather by CustomWeather, © 2014

Note: Actual official high and low records may vary slightly from our data, if they occured in-between our weather recording intervals... More about our weather records

Advertising

Historic Weather Conditions — Data for Previous 24 hours

 ConditionsComfort  
Time TempWeatherWind HumidityBarometerVisibility
10:55 AM
Apr 18
48 °FPassing clouds.14 mph66%30.01 "HgN/A
10:25 AM46 °FDrizzle. Partly sunny.10 mph76%30.01 "HgN/A
9:55 AM48 °FPartly sunny.7 mph76%30.01 "HgN/A
9:25 AM46 °FLight rain. Broken clouds.7 mph76%30.01 "HgN/A
8:55 AM48 °FScattered clouds.7 mph71%30.01 "HgN/A
8:25 AM46 °FLight rain. Partly sunny.9 mph76%30.01 "HgN/A
7:55 AM45 °FDrizzle. Partly sunny.8 mph76%30.01 "HgN/A
7:25 AM45 °FMostly cloudy.8 mph87%29.98 "HgN/A
6:55 AM45 °FRain. Partly cloudy.8 mph87%29.98 "HgN/A
6:25 AM45 °FDrizzle. Mostly cloudy.10 mph87%29.98 "HgN/A
5:55 AM45 °FSprinkles. Partly cloudy.10 mph87%29.98 "HgN/A
5:25 AM45 °FPassing clouds.8 mph81%29.98 "HgN/A
4:55 AM45 °FPassing clouds.9 mph81%29.98 "HgN/A
4:25 AM43 °FPartly cloudy.7 mph87%29.95 "HgN/A
3:55 AM43 °FQuite cool.7 mph81%29.95 "HgN/A
3:25 AM43 °FQuite cool.7 mph87%29.95 "HgN/A
2:55 AM46 °FClear.8 mph76%29.95 "HgN/A
2:25 AM46 °FClear.7 mph82%29.95 "HgN/A
1:55 AM46 °FClear.8 mph87%29.95 "HgN/A
1:25 AM46 °FClear.8 mph87%29.98 "HgN/A
12:55 AM50 °FPassing clouds.14 mph82%29.98 "HgN/A
12:25 AM50 °FPartly cloudy.10 mph82%29.98 "HgN/A
11:55 PM
Apr 17
50 °FOvercast.10 mph82%29.98 "HgN/A
11:25 PM48 °FMostly cloudy.6 mph94%29.98 "HgN/A
10:55 PM48 °FOvercast.5 mph94%29.98 "HgN/A
10:25 PM48 °FPassing clouds.6 mph94%29.98 "HgN/A
9:55 PM50 °FDrizzle. Overcast.6 mph88%29.98 "HgN/A
9:25 PM50 °FLight rain. Mostly cloudy.9 mph94%29.98 "Hg4 mi
8:55 PM50 °FLight rain. Broken clouds.10 mph94%29.98 "Hg4 mi
8:25 PM50 °FSprinkles. Partly sunny.12 mph94%29.98 "Hg4 mi
7:55 PM54 °FPassing clouds.13 mph77%29.98 "HgN/A
6:55 PM55 °FClear.10 mph63%29.98 "HgN/A
6:25 PM55 °FClear.15 mph55%29.98 "HgN/A
5:55 PM57 °FClear.13 mph51%29.98 "HgN/A
5:25 PM57 °FClear.14 mph51%29.98 "HgN/A
4:55 PM61 °FClear.16 mph48%30.01 "HgN/A
4:25 PM59 °FClear.15 mph48%30.01 "HgN/A
3:55 PM61 °FRefreshingly cool.18 mph42%30.01 "HgN/A
3:25 PM61 °FRefreshingly cool.18 mph42%30.04 "HgN/A
2:55 PM63 °FClear.13 mph42%30.04 "HgN/A
2:25 PM61 °FClear.17 mph45%30.07 "HgN/A
1:55 PM61 °FClear.18 mph45%30.09 "HgN/A
1:25 PM61 °FClear.16 mph45%30.09 "HgN/A
12:55 PM61 °FRefreshingly cool.15 mph45%30.09 "HgN/A
12:25 PM59 °FClear.14 mph48%30.12 "HgN/A
Weather by CustomWeather, © 2014

See weather overview